Regional Weather Roundup
Issued by NWS

Home | Current Version | Previous Version | Graphics & Text | Print | Product List | Glossary On
Versions: 1 2 3 4 5 6 7 8 9 10 11 12 13 14 15 16 17 18 19 20 21 22 23 24 25 26 27 28 29 30 31 32 33 34 35 36 37 38 39 40 41 42 43 44 45 46 47 48
000
ASUS43 KDMX 071607
RWRIA

WEATHER ROUNDUP FOR IOWA
NATIONAL WEATHER SERVICE DES MOINES IA
1100 AM CDT TUE JUL 07 2015

NOTE: "FAIR" INDICATES FEW OR NO CLOUDS BELOW 12,000 FEET WITH NO
SIGNIFICANT WEATHER AND/OR OBSTRUCTIONS TO VISIBILITY.

* - THESE STATIONS ARE NOT NWS STATIONS...THUS NOT UNDER NWS
QUALITY CONTROL.  THEY ALSO DO NOT REPORT WEATHER SUCH
AS PRECIPITATION OR FOG.

IAZ001>003-012>014-020>022-031>034-043>046-071700-
   NORTHWEST IOWA

CITY           SKY/WX    TMP DP  RH WIND       PRES   REMARKS
CARROLL *      MOSUNNY   63  48  59 NE14G22   30.15F
CHEROKEE *     MOSUNNY   63  50  63 N9        30.19S
DENISON *      SUNNY     63  50  63 N14       30.15S
LE MARS *      SUNNY     63  48  59 NE8G15    30.21S
ORANGE CITY *  MOSUNNY   61  46  59 NE8       30.20S
SHELDON *      MOSUNNY   61  48  63 NE9G16    30.19S
SIOUX CITY     SUNNY     65  46  50 N10       30.19F
SPENCER        PTSUNNY   64  45  49 N15       30.19S
STORM LAKE *   MOSUNNY   61  48  63 NE10G18   30.19S
$$

IAZ055>058-069>071-079>083-090>094-071700-
   SOUTHWEST IOWA

CITY           SKY/WX    TMP DP  RH WIND       PRES   REMARKS
ATLANTIC *     SUNNY     64  50  59 NE16G23   30.14S
AUDUBON *      SUNNY     64  52  63 NE9G18    30.16S
CLARINDA *     SUNNY     66  54  63 N13G21    30.14S
COUNCIL BLFS * SUNNY     64  50  59 NE15G22   30.15F
CRESTON *      MOSUNNY   64  54  68 N15       30.12S
HARLAN  *      SUNNY     64  52  63 N17       30.18F
LAMONI         MOSUNNY   67  57  70 N15       30.09S
RED OAK *      SUNNY     66  50  55 N16G23    30.14F
SHENANDOAH *   SUNNY     66  50  55 N16G22    30.14F
$$

IAZ047>049-059>061-072>074-084-071700-
   CENTRAL IOWA

CITY           SKY/WX    TMP DP  RH WIND       PRES   REMARKS
AMES           SUNNY     65  49  56 N15       30.12S
ANKENY *       MOSUNNY   66  55  68 N14       30.11S
CHARITON *     CLOUDY    64  57  77 N14       30.09S
DES MOINES     MOSUNNY   68  53  58 NE12      30.10S
GRINNELL*      CLOUDY    63  55  77 N10       30.10S
KNOXVILLE *    CLOUDY    64  54  68 N8G14     30.08S
MARSHALLTOWN   SUNNY     65  51  60 N16       30.10S
PELLA *        CLOUDY    64  59  82 N7        30.11R
PERRY *          N/A     64  48  55 NE14      30.13F
$$

IAZ004>006-015-016-023>025-035-036-071700-
   NORTH CENTRAL IOWA

CITY           SKY/WX    TMP DP  RH WIND       PRES   REMARKS
ALGONA *       MOSUNNY   63  48  59 N12       30.17S
CLARION *      SUNNY     63  48  59 NE15G21   30.14F
ESTHERVILLE    MOSUNNY   60  46  59 N10       30.18S
FORT DODGE *   SUNNY     64  48  55 N10       30.16S
MASON CITY     CLOUDY    62  48  60 NE12      30.16R
FOREST CITY *  PTSUNNY   59  46  63 N12       30.16S
IOWA FALLS *     N/A     63  48  59 N12G20    30.14S
$$

IAZ007>011-017>019-026>030-037>042-050>054-066-071700-
   NORTHEAST IOWA

CITY           SKY/WX    TMP DP  RH WIND       PRES   REMARKS
CEDAR RAPIDS   CLOUDY    65  58  78 N12       30.06S HAZE
CHARLES CITY * MOSUNNY   63  48  59 NE13G21   30.14S
CLINTON *      MOSUNNY   68  57  68 N14G20    30.06S
DECORAH *        N/A    N/A N/A N/A MISG        N/A
DUBUQUE        CLOUDY    62  54  74 N13       30.07S HAZE
MONTICELLO *   CLOUDY    66  59  77 NE8G15    30.06S HAZE
OELWEIN *      MOSUNNY   64  52  63 N13       30.11S
WATERLOO       MOSUNNY   65  49  56 N14       30.10S
$$

IAZ064-065-067-068-078-071700-
   EAST CENTRAL IOWA

CITY           SKY/WX    TMP DP  RH WIND       PRES   REMARKS
DAVENPORT      MOSUNNY   69  58  67 N13       30.04R HAZE
IOWA CITY      PTSUNNY   68  57  68 N13       30.06S HAZE
MT. PLEASANT * MOSUNNY   72  54  53 N13       30.04S HAZE
MUSCATINE *    PTSUNNY   68  57  68 N14       30.04S HAZE
QUAD CITIES    MOSUNNY   69  57  65 NE12      30.02S HAZE
$$

IAZ062-063-075>077-085>089-095>099-071700-
   SOUTHEAST IOWA

CITY           SKY/WX    TMP DP  RH WIND       PRES   REMARKS
BURLINGTON     MOSUNNY   69  60  73 N15G25    30.02S HAZE
FAIRFIELD *    MOSUNNY   68  57  68 N12G17    30.06R HAZE
FORT MADISON * SUNNY     68  59  73 N14G20    30.03S HAZE
KEOKUK *       MOSUNNY   68  61  77 N12G20    30.01S HAZE
OSKALOOSA *      N/A     66  57  72 N12       30.07S
CENTERVILLE *  SUNNY     66  59  77 N13       30.08R
OTTUMWA        SUNNY     68  59  73 N14       30.05S
WASHINGTON *   MOSUNNY   70  59  68 N13       30.06S HAZE
$$

ABBREVIATIONS USED IN REMARKS
   TC - TEMPERATURES IN CELSIUS
  WCI - WIND CHILL INDEX
   HX - HEAT INDEX
  VSB - VISIBILITY
$$



USA.gov is the U.S. government's official web portal to all federal, state and local government web resources and services.